Theta_e
285 284 283 281 280 279 278 277 277 277 276 276 275 275 275 275 275 274 274 274 274 274 274 274 274 275 274 274 274 275 274 275 273 275 277 278 277 278 280 281 282 281 282
284 283 281 280 279 278 277 276 276 275 275 275 274 274 274 273 273 273 272 273 272 272 272 272 271 273 271 272 271 271 271 272 271 269 272 273 273 275 276 277 279 280 279
283 282 280 279 277 276 276 275 275 274 274 274 273 272 272 272 272 272 271 271 271 270 271 271 271 271 271 271 271 271 271 272 271 270 269 272 272 274 274 275 275 276 279
283 281 279 277 276 275 275 274 274 273 272 272 272 272 271 271 271 271 271 271 270 271 271 272 272 272 272 272 272 271 272 271 271 270 269 270 271 273 274 272 273 276 277
282 280 278 276 275 275 274 273 273 272 271 271 271 270 270 270 270 270 271 271 271 271 272 273 273 273 275 275 274 273 273 272 271 270 269 270 270 271 271 273 273 274 276
280 278 276 275 275 274 273 272 271 271 271 270 270 269 269 270 273 275 275 272 273 272 271 272 273 272 273 276 277 277 277 273 272 271 271 270 271 272 273 273 273 273 272
278 277 275 274 273 272 272 271 271 270 270 270 270 270 269 270 273 275 275 274 272 271 271 272 272 273 273 273 275 277 277 277 277 274 271 272 272 274 275 274 274 274 274
277 276 274 273 272 271 271 270 270 270 269 269 269 269 269 269 273 274 274 273 272 272 272 273 273 273 275 275 275 274 274 275 276 275 274 274 274 275 276 275 275 275 276
275 274 273 273 271 270 269 269 269 269 269 269 269 268 267 268 270 272 274 272 272 272 274 274 275 274 275 277 274 272 273 273 277 278 278 279 280 281 280 277 275 273 272
274 273 272 272 270 269 269 269 269 269 268 269 268 268 267 266 270 272 274 272 270 272 274 274 274 273 276 277 274 273 270 272 273 272 274 275 277 277 279 278 277 274 276
274 272 271 270 269 269 268 268 267 267 268 267 267 267 268 268 268 272 275 273 272 273 271 271 272 274 276 276 276 272 271 274 274 272 274 275 275 276 276 277 278 277 275
272 270 269 268 268 268 267 266 265 266 265 265 266 267 270 271 271 272 274 275 276 271 271 271 272 275 274 274 273 274 274 274 269 269 270 271 274 275 276 278 279 280 280
269 268 266 266 265 265 264 263 264 265 265 266 267 268 268 269 270 271 273 275 274 272 272 273 274 272 272 270 271 272 270 268 267 266 267 269 272 274 277 278 279 280 280
266 265 264 264 263 263 265 265 265 265 266 267 267 267 267 268 268 269 270 269 273 272 272 267 268 269 269 269 267 269 269 268 268 267 267 269 270 271 272 274 276 280 278
266 264 264 263 263 264 265 266 267 268 267 266 266 266 265 264 267 272 272 271 271 271 265 262 262 263 263 264 264 266 267 267 267 268 267 267 268 270 270 273 274 278 278
266 264 264 263 264 265 265 266 270 269 271 271 271 267 266 269 271 272 272 273 271 271 257 258 260 261 262 262 263 263 265 266 267 268 267 267 267 268 268 269 271 272 277
267 266 265 265 265 264 263 264 264 268 271 271 270 269 269 269 270 271 271 270 268 265 252 258 259 260 261 262 263 263 264 265 267 267 267 266 268 267 266 266 268 270 272
267 266 265 265 265 264 264 263 263 262 262 263 267 267 267 268 269 269 269 263 254 258 252 257 258 259 260 261 262 263 264 264 266 267 266 267 266 265 265 265 266 267 269
266 265 265 265 264 265 265 264 263 262 261 260 260 265 261 266 268 266 265 252 249 250 253 256 257 258 259 261 262 263 264 263 266 266 267 266 265 264 264 264 265 266 267
266 265 265 264 263 262 262 261 261 260 259 259 258 257 255 255 251 249 248 247 247 248 253 255 256 258 259 260 261 262 263 264 266 267 267 266 265 264 264 264 264 264 265
265 263 263 262 261 261 260 260 260 259 258 257 255 254 261 251 248 247 246 246 246 247 252 254 255 256 258 260 261 262 262 264 267 268 267 265 265 264 264 265 265 265 265
262 260 261 260 260 260 260 259 259 258 257 255 253 253 262 250 248 245 244 245 246 247 251 251 254 256 257 259 260 261 262 263 266 268 266 265 265 264 264 264 264 265 266
261 260 260 259 259 258 258 257 257 256 256 254 253 252 250 247 246 244 244 245 245 248 251 250 252 254 257 259 260 261 263 263 267 268 266 265 265 264 264 263 263 264 266
260 260 259 257 258 257 256 256 256 256 254 252 252 249 248 246 244 244 244 244 245 248 249 250 251 252 255 257 259 262 264 265 270 268 266 265 264 264 264 263 263 264 264
259 258 257 257 256 256 256 255 254 253 253 253 251 249 247 247 246 244 244 245 247 248 249 250 252 252 253 255 258 261 263 266 271 268 267 266 264 264 264 263 263 263 264
259 258 257 257 256 256 255 255 254 254 252 252 251 249 249 247 246 245 245 246 248 249 249 251 251 250 252 256 260 262 265 270 271 269 267 265 264 263 264 263 262 263 263
Wind_Speed
15 13 12 11 10 9 10 9 9 7 8 7 6 5 4 3 3 4 4 4 7 8 8 9 11 10 8 8 8 9 11 11 15 24 19 21 21 19 16 16 18 18 18
14 13 12 10 11 12 10 9 8 7 7 7 6 5 4 4 4 5 5 6 7 8 9 10 12 9 11 11 10 13 12 13 13 21 23 20 24 19 19 20 16 15 18
13 15 13 13 13 12 11 10 9 9 8 7 7 6 5 5 5 4 5 7 8 9 10 11 11 11 13 11 12 12 12 12 13 14 19 15 19 16 18 18 19 19 17
15 15 15 14 13 11 10 9 9 8 8 7 6 6 5 5 6 6 8 8 8 9 10 12 12 13 15 15 14 15 14 14 15 15 16 16 15 15 15 15 18 13 16
16 15 15 12 12 11 10 9 9 8 7 6 6 5 5 5 5 7 7 7 10 10 11 12 13 15 24 24 15 15 15 14 13 15 16 15 15 14 16 14 17 15 19
17 15 14 14 13 13 12 12 11 10 9 8 8 7 7 5 11 13 10 7 10 12 12 12 13 16 19 28 29 32 27 18 18 15 16 18 20 18 16 15 16 15 18
16 16 16 16 15 15 13 12 11 10 9 9 8 7 6 7 12 12 12 8 10 10 13 14 13 12 17 18 25 33 32 34 35 24 23 20 22 20 19 20 18 17 19
16 16 16 17 15 14 14 13 10 9 10 9 7 7 5 6 11 10 11 8 8 12 14 15 16 17 16 19 20 21 21 19 19 18 23 23 21 20 20 20 21 21 20
17 17 18 18 17 15 13 12 11 10 9 8 7 6 7 6 10 9 10 6 9 12 13 13 14 16 25 30 22 21 22 19 22 35 39 40 40 39 34 18 17 17 19
20 19 17 17 18 17 15 14 10 9 9 7 7 7 7 6 9 9 10 5 7 9 11 10 18 18 29 32 22 19 21 19 19 22 21 26 29 25 36 23 15 18 16
14 14 16 16 16 15 13 11 11 9 8 7 6 6 7 8 8 9 11 6 6 8 8 9 10 26 31 32 30 16 20 23 22 16 19 12 14 17 16 16 19 18 18
15 15 15 15 12 12 14 11 10 9 8 7 6 5 5 5 5 6 10 14 15 8 10 10 13 29 30 29 23 28 32 26 13 12 13 13 13 13 14 16 19 20 18
15 15 15 14 12 13 13 13 10 8 7 6 6 5 4 3 2 6 10 13 15 11 9 18 28 28 28 20 26 29 21 13 12 12 13 14 13 13 16 16 20 22 20
14 15 13 13 13 12 10 9 9 9 8 7 5 5 3 3 2 4 5 3 8 8 13 9 16 20 21 20 14 16 12 13 13 13 13 14 14 13 13 13 16 12 13
13 14 14 11 12 11 9 9 9 7 8 7 5 4 4 3 4 5 5 4 5 9 8 7 8 10 11 11 11 13 12 13 13 13 13 14 14 13 13 12 13 14 13
17 14 12 11 11 12 12 10 13 14 14 12 11 7 3 5 3 5 8 12 13 15 3 5 8 9 10 12 12 13 13 16 14 15 14 14 14 13 14 13 12 13 14
17 16 13 14 11 10 9 12 12 10 14 14 11 9 6 4 2 5 9 12 11 9 1 5 8 9 11 12 12 13 15 15 17 15 15 15 13 14 16 13 12 12 13
17 22 13 12 12 11 10 10 8 11 10 8 9 9 5 1 2 5 11 7 3 5 1 6 8 10 11 12 12 13 14 15 14 16 16 13 14 14 14 13 12 13 13
16 14 17 13 10 12 10 10 9 9 8 7 4 7 3 3 6 8 9 2 2 2 3 6 7 9 10 11 13 14 15 15 16 17 15 15 14 13 14 13 13 17 17
16 21 15 14 14 12 10 10 9 8 7 6 6 4 2 3 2 1 2 1 2 2 4 6 8 9 10 11 13 14 15 16 16 16 17 15 14 13 14 14 13 13 13
12 12 18 12 11 11 11 10 8 8 7 6 4 4 10 4 3 2 2 2 2 2 5 6 8 9 10 11 12 14 15 16 17 17 18 17 16 14 13 13 13 13 14
12 12 11 11 10 10 10 9 8 8 8 7 4 1 9 2 4 1 2 3 2 2 4 6 7 7 9 11 13 14 15 18 17 18 20 19 16 15 15 15 14 13 14
13 13 12 11 10 13 10 9 7 7 6 6 5 4 2 2 2 2 2 3 2 4 6 5 6 8 9 10 11 13 15 18 18 19 22 20 18 17 16 16 15 13 13
15 14 13 11 10 9 9 9 7 8 7 5 5 3 3 3 2 1 3 3 3 4 5 6 6 8 11 11 12 13 15 18 14 18 25 20 19 21 17 17 16 18 15
13 13 12 11 11 9 9 8 7 6 6 5 4 3 2 2 1 1 3 3 4 4 7 8 6 9 11 18 18 21 25 29 18 24 18 22 23 26 20 17 19 16 17
12 12 10 10 9 8 8 8 7 6 5 4 3 2 2 2 1 1 2 4 5 5 7 7 9 12 15 13 17 24 27 28 23 26 19 19 20 20 20 22 27 17 20
Wind_Direction
186 184 181 177 168 158 164 161 161 153 149 146 151 166 185 206 227 241 250 271 269 267 269 271 273 279 279 277 273 270 267 261 266 285 285 296 291 289 289 290 287 285 279
181 178 180 165 165 163 163 158 151 144 138 140 148 164 190 215 227 239 256 267 268 270 271 273 274 282 279 273 269 266 263 264 267 273 284 291 289 292 287 285 286 285 284
175 177 172 171 172 169 160 154 145 146 144 149 159 181 198 213 230 248 258 259 259 262 266 269 275 276 273 270 268 269 267 266 265 265 274 280 285 290 286 280 279 276 269
174 177 176 174 171 158 148 146 148 146 150 158 172 185 191 215 237 243 253 259 264 265 269 271 275 273 275 276 271 269 268 265 261 261 265 271 273 280 276 282 279 274 278
173 174 176 164 157 148 146 145 139 147 154 157 163 182 204 222 237 241 248 259 270 275 275 279 277 272 275 278 283 279 272 267 265 265 264 263 265 270 269 275 275 284 279
170 170 162 157 154 153 152 153 154 156 164 171 184 196 209 224 243 249 256 255 277 288 284 278 278 280 275 279 284 286 281 282 276 272 273 265 262 263 265 268 270 272 282
166 165 161 161 160 159 155 155 164 168 165 182 188 201 214 229 249 254 263 283 285 284 281 283 283 276 278 279 277 279 279 276 273 276 273 269 273 272 272 272 270 270 275
166 164 162 164 165 158 160 163 157 161 172 179 191 197 209 235 248 259 280 283 275 276 275 279 284 287 289 291 293 288 281 275 272 263 263 267 263 264 264 269 271 272 271
173 172 169 166 162 162 165 163 162 163 169 175 168 186 210 233 256 263 278 275 274 276 281 288 298 307 300 302 303 295 288 286 283 281 277 276 270 262 258 262 257 259 262
181 173 168 167 163 166 163 167 162 160 160 162 181 185 204 221 248 258 282 261 274 284 289 309 307 308 307 309 305 303 295 295 297 286 274 266 267 267 268 271 275 268 272
166 164 163 164 162 157 154 153 154 155 147 164 176 197 209 216 228 261 285 291 285 296 316 311 307 306 319 317 311 316 298 301 306 306 292 267 261 257 254 249 252 255 261
157 158 161 160 153 148 150 142 144 145 149 161 180 198 205 186 220 276 296 307 313 327 314 312 303 319 319 323 323 315 318 318 307 304 301 299 285 269 253 253 251 248 247
159 156 155 153 149 150 149 143 145 152 153 169 182 179 175 189 201 285 308 312 333 322 320 312 327 319 321 322 322 322 330 308 308 307 303 300 295 295 296 276 258 253 247
158 155 155 154 150 148 144 152 151 149 160 170 179 170 170 181 218 257 254 273 305 331 324 333 318 318 318 318 319 319 316 312 309 309 303 303 298 291 284 281 282 263 247
163 158 158 155 159 153 149 159 147 153 158 161 157 168 163 179 240 290 351 337 347 326 5 319 317 324 323 325 324 316 317 316 311 315 307 305 300 294 294 293 287 278 244
165 169 165 160 166 160 146 137 149 150 160 165 167 166 202 221 299 8 358 3 354 355 4 318 320 322 323 322 321 319 317 321 313 316 312 306 299 297 298 294 290 280 270
169 169 158 157 167 149 144 142 149 156 161 161 161 174 157 202 50 35 21 21 358 9 343 315 319 326 318 320 318 320 316 320 310 316 311 304 299 303 299 292 290 289 281
170 164 164 157 155 146 152 148 153 153 162 162 169 158 139 108 97 55 45 31 337 348 296 328 326 316 317 319 316 320 316 318 314 319 311 308 310 302 298 292 287 284 284
168 170 151 149 146 146 144 146 150 148 157 146 156 150 90 115 114 63 55 125 258 314 308 326 306 305 311 312 313 317 316 313 317 320 319 319 312 304 296 290 285 281 277
163 157 153 143 141 138 139 139 142 142 142 147 150 151 160 90 70 15 18 314 331 279 310 313 309 312 311 314 315 319 317 315 322 324 326 321 314 306 299 293 285 280 273
148 143 138 134 139 139 136 139 144 144 139 145 151 182 145 120 150 109 275 284 294 311 312 301 308 306 309 314 318 322 315 316 318 327 329 326 319 313 307 296 290 278 267
138 132 133 129 130 131 128 132 138 137 145 146 146 111 109 172 98 219 269 282 285 267 269 275 294 297 305 313 319 318 316 321 315 333 331 327 322 321 316 308 300 286 276
131 127 122 121 121 121 119 116 128 135 143 139 121 115 202 132 120 249 286 280 341 303 287 279 283 304 312 319 316 314 322 319 319 340 332 328 328 328 323 317 310 299 284
121 123 122 119 122 121 124 126 129 136 132 123 114 169 198 125 177 261 287 325 298 284 283 284 281 290 315 318 318 315 322 318 327 342 337 331 330 330 330 326 318 308 288
115 118 121 125 122 125 127 123 128 119 117 138 151 195 144 142 87 353 324 311 295 305 305 295 289 305 315 318 311 317 321 321 348 347 339 338 336 336 336 334 330 324 321
110 109 116 111 115 128 125 121 118 125 135 141 161 148 149 95 31 354 331 305 303 311 305 296 303 309 316 317 315 321 325 330 355 353 343 345 343 342 342 344 344 344 340